NIMIQ 6

Last updated on Tue Sep 22 2026 00:03:12 GMT+0000 (Coordinated Universal Time)

1 38342U 12026A 26264.40646699 .00000000 00000+0 00000+0 0 9993 2 38342 0.0181 168.4405 0002941 12.8009 234.2713 1.00268554 51386
UTC large
Height (km)
Speed (km/s)
/
Latitude / Longitude
Inclination (degrees)
Orbital Period (minutes)
Azimuth
Elevation
Range (km)
Doppler Factor

Next 0 passes for location: London (51.5072 / 0.1276)

No passes found over London.
NIMIQ 6